Time,TemperatureF,DewpointF,PressureIn,WindDirection,WindDirectionDegrees,WindSpeedMPH,WindSpeedGustMPH,Humidity,HourlyPrecipIn,Conditions,Clouds,dailyrainin,SoftwareType,DateUTC
2013-03-03 00:02:00,28.2,22.0,30.14,ESE,123,4.0,6.0,78,0.00,,,0.00,weatherlink.com 1.10,2013-03-03 06:02:00,
2013-03-03 00:17:00,28.0,23.0,30.13,ESE,118,5.0,8.0,80,0.00,,,0.00,weatherlink.com 1.10,2013-03-03 06:17:00,
2013-03-03 00:32:00,27.8,23.0,30.12,SE,144,5.0,9.0,81,0.00,,,0.00,weatherlink.com 1.10,2013-03-03 06:32:00,
2013-03-03 00:47:00,27.7,23.0,30.11,ESE,123,4.0,9.0,81,0.00,,,0.00,weatherlink.com 1.10,2013-03-03 06:47:00,
2013-03-03 01:02:00,27.5,23.0,30.10,ESE,114,7.0,9.0,82,0.00,,,0.00,weatherlink.com 1.10,2013-03-03 07:02:00,
2013-03-03 01:17:00,27.3,23.0,30.10,ESE,122,5.0,9.0,83,0.00,,,0.00,weatherlink.com 1.10,2013-03-03 07:17:00,
2013-03-03 01:33:00,27.2,23.0,30.10,ESE,112,8.0,10.0,83,0.00,,,0.00,weatherlink.com 1.10,2013-03-03 07:33:00,
2013-03-03 01:48:00,26.9,23.0,30.09,ESE,123,5.0,11.0,84,0.00,,,0.00,weatherlink.com 1.10,2013-03-03 07:48:00,
2013-03-03 02:03:00,26.5,23.0,30.09,ESE,107,4.0,8.0,85,0.00,,,0.00,weatherlink.com 1.10,2013-03-03 08:03:00,
2013-03-03 02:18:00,26.3,23.0,30.08,ESE,103,5.0,8.0,86,0.00,,,0.00,weatherlink.com 1.10,2013-03-03 08:18:00,
2013-03-03 02:33:00,26.2,23.0,30.07,SE,138,8.0,10.0,86,0.00,,,0.00,weatherlink.com 1.10,2013-03-03 08:33:00,
2013-03-03 02:48:00,26.3,23.0,30.06,SE,132,3.0,11.0,86,0.00,,,0.00,weatherlink.com 1.10,2013-03-03 08:48:00,
2013-03-03 03:18:00,26.1,22.0,30.04,ESE,121,8.0,9.0,85,0.00,,,0.00,weatherlink.com 1.10,2013-03-03 09:18:00,
2013-03-03 03:33:00,26.0,22.0,30.04,SE,130,5.0,9.0,85,0.00,,,0.00,weatherlink.com 1.10,2013-03-03 09:33:00,
2013-03-03 03:48:00,26.0,22.0,30.04,SE,146,6.0,8.0,85,0.00,,,0.00,weatherlink.com 1.10,2013-03-03 09:48:00,
2013-03-03 04:03:00,26.0,22.0,30.03,SE,125,3.0,8.0,85,0.00,,,0.00,weatherlink.com 1.10,2013-03-03 10:03:00,
2013-03-03 04:18:00,26.0,22.0,30.03,SE,134,4.0,9.0,85,0.00,,,0.00,weatherlink.com 1.10,2013-03-03 10:18:00,
2013-03-03 04:33:00,26.1,22.0,30.02,ESE,121,4.0,8.0,85,0.00,,,0.00,weatherlink.com 1.10,2013-03-03 10:33:00,
2013-03-03 04:48:00,26.1,22.0,30.03,ESE,113,2.0,8.0,85,0.00,,,0.00,weatherlink.com 1.10,2013-03-03 10:48:00,
2013-03-03 05:04:00,25.8,22.0,30.02,ESE,116,3.0,5.0,85,0.00,,,0.00,weatherlink.com 1.10,2013-03-03 11:04:00,
2013-03-03 05:18:00,25.3,22.0,30.02,ESE,102,3.0,7.0,86,0.00,,,0.00,weatherlink.com 1.10,2013-03-03 11:18:00,
2013-03-03 05:33:00,25.1,22.0,30.01,ESE,108,4.0,8.0,86,0.00,,,0.00,weatherlink.com 1.10,2013-03-03 11:33:00,
2013-03-03 05:48:00,25.0,22.0,30.01,ESE,107,3.0,8.0,87,0.00,,,0.00,weatherlink.com 1.10,2013-03-03 11:48:00,
2013-03-03 06:03:00,24.9,22.0,30.01,ESE,119,3.0,9.0,87,0.00,,,0.00,weatherlink.com 1.10,2013-03-03 12:03:00,
2013-03-03 06:18:00,24.9,22.0,30.01,ESE,109,4.0,9.0,87,0.00,,,0.00,weatherlink.com 1.10,2013-03-03 12:18:00,
2013-03-03 06:33:00,24.8,22.0,30.01,ESE,103,5.0,7.0,87,0.00,,,0.00,weatherlink.com 1.10,2013-03-03 12:33:00,
2013-03-03 06:48:00,24.7,21.0,30.01,SE,124,4.0,7.0,87,0.00,,,0.00,weatherlink.com 1.10,2013-03-03 12:48:00,
2013-03-03 07:03:00,24.8,22.0,30.01,ESE,111,5.0,9.0,87,0.00,,,0.00,weatherlink.com 1.10,2013-03-03 13:03:00,
2013-03-03 07:18:00,24.9,22.0,30.00,ESE,115,4.0,8.0,87,0.00,,,0.00,weatherlink.com 1.10,2013-03-03 13:18:00,
2013-03-03 07:33:00,25.1,22.0,30.00,ESE,119,4.0,9.0,86,0.00,,,0.00,weatherlink.com 1.10,2013-03-03 13:33:00,
2013-03-03 07:48:00,25.8,22.0,30.00,ESE,115,3.0,10.0,85,0.00,,,0.00,weatherlink.com 1.10,2013-03-03 13:48:00,
2013-03-03 08:03:00,26.4,22.0,29.99,SE,130,5.0,11.0,84,0.00,,,0.00,weatherlink.com 1.10,2013-03-03 14:03:00,
2013-03-03 08:18:00,26.9,22.0,29.99,ESE,119,10.0,11.0,83,0.00,,,0.00,weatherlink.com 1.10,2013-03-03 14:18:00,
2013-03-03 08:33:00,27.3,23.0,29.99,ESE,116,5.0,12.0,82,0.00,,,0.00,weatherlink.com 1.10,2013-03-03 14:33:00,
2013-03-03 08:48:00,27.8,23.0,29.99,ESE,115,9.0,13.0,81,0.00,,,0.00,weatherlink.com 1.10,2013-03-03 14:48:00,
2013-03-03 09:03:00,28.6,23.0,29.99,South,175,3.0,11.0,80,0.00,,,0.00,weatherlink.com 1.10,2013-03-03 15:03:00,
2013-03-03 09:18:00,29.2,23.0,29.98,SSE,155,4.0,12.0,78,0.00,,,0.00,weatherlink.com 1.10,2013-03-03 15:18:00,
2013-03-03 09:33:00,30.0,24.0,29.97,East,101,7.0,14.0,77,0.00,,,0.00,weatherlink.com 1.10,2013-03-03 15:33:00,
2013-03-03 09:49:00,30.9,24.0,29.96,SE,124,6.0,12.0,76,0.00,,,0.00,weatherlink.com 1.10,2013-03-03 15:49:00,
2013-03-03 10:04:00,31.5,24.0,29.96,SSE,153,3.0,12.0,75,0.00,,,0.00,weatherlink.com 1.10,2013-03-03 16:04:00,
2013-03-03 10:19:00,32.6,26.0,29.95,ESE,109,5.0,9.0,75,0.00,,,0.00,weatherlink.com 1.10,2013-03-03 16:19:00,
2013-03-03 10:34:00,33.2,25.0,29.95,SE,124,7.0,13.0,73,0.00,,,0.00,weatherlink.com 1.10,2013-03-03 16:34:00,
2013-03-03 10:49:00,33.0,26.0,29.95,SSW,199,3.0,11.0,74,0.00,,,0.00,weatherlink.com 1.10,2013-03-03 16:49:00,
2013-03-03 11:04:00,33.7,26.0,29.94,ESE,109,5.0,12.0,72,0.00,,,0.00,weatherlink.com 1.10,2013-03-03 17:04:00,
2013-03-03 11:19:00,33.2,25.0,29.93,East,83,7.0,14.0,73,0.00,,,0.00,weatherlink.com 1.10,2013-03-03 17:19:00,
2013-03-03 11:34:00,33.3,26.0,29.94,SE,132,5.0,13.0,74,0.00,,,0.00,weatherlink.com 1.10,2013-03-03 17:34:00,
2013-03-03 11:49:00,33.5,26.0,29.93,ESE,115,4.0,14.0,75,0.00,,,0.00,weatherlink.com 1.10,2013-03-03 17:49:00,
2013-03-03 12:04:00,34.3,26.0,29.91,SE,132,7.0,13.0,73,0.00,,,0.00,weatherlink.com 1.10,2013-03-03 18:04:00,
2013-03-03 12:19:00,34.2,26.0,29.91,East,97,8.0,16.0,73,0.00,,,0.00,weatherlink.com 1.10,2013-03-03 18:19:00,
2013-03-03 12:34:00,34.6,27.0,29.90,East,96,11.0,14.0,74,0.00,,,0.00,weatherlink.com 1.10,2013-03-03 18:34:00,
2013-03-03 12:49:00,35.2,27.0,29.89,ESE,110,11.0,17.0,73,0.00,,,0.00,weatherlink.com 1.10,2013-03-03 18:49:00,
2013-03-03 13:04:00,35.7,27.0,29.88,ESE,113,12.0,16.0,72,0.00,,,0.00,weatherlink.com 1.10,2013-03-03 19:04:00,
2013-03-03 13:19:00,36.0,28.0,29.87,East,101,13.0,18.0,72,0.00,,,0.00,weatherlink.com 1.10,2013-03-03 19:19:00,
2013-03-03 13:34:00,36.5,28.0,29.86,ESE,103,4.0,16.0,71,0.00,,,0.00,weatherlink.com 1.10,2013-03-03 19:34:00,
2013-03-03 13:49:00,37.0,28.0,29.86,ESE,120,10.0,14.0,71,0.00,,,0.00,weatherlink.com 1.10,2013-03-03 19:49:00,
2013-03-03 14:04:00,36.9,28.0,29.86,ESE,111,13.0,15.0,71,0.00,,,0.00,weatherlink.com 1.10,2013-03-03 20:04:00,
2013-03-03 14:19:00,36.8,28.0,29.84,ESE,118,10.0,18.0,71,0.00,,,0.00,weatherlink.com 1.10,2013-03-03 20:19:00,
2013-03-03 14:34:00,36.9,28.0,29.84,SSE,153,14.0,21.0,71,0.00,,,0.00,weatherlink.com 1.10,2013-03-03 20:34:00,
2013-03-03 14:49:00,37.1,28.0,29.84,SE,126,10.0,18.0,71,0.00,,,0.00,weatherlink.com 1.10,2013-03-03 20:49:00,
2013-03-03 15:04:00,37.2,29.0,29.84,ESE,117,14.0,15.0,71,0.00,,,0.00,weatherlink.com 1.10,2013-03-03 21:04:00,
2013-03-03 15:19:00,37.1,28.0,29.84,East,101,10.0,16.0,71,0.00,,,0.00,weatherlink.com 1.10,2013-03-03 21:19:00,
2013-03-03 15:34:00,36.8,29.0,29.84,East,92,13.0,18.0,72,0.00,,,0.00,weatherlink.com 1.10,2013-03-03 21:34:00,
2013-03-03 15:49:00,36.5,29.0,29.83,East,88,11.0,19.0,73,0.00,,,0.00,weatherlink.com 1.10,2013-03-03 21:49:00,
2013-03-03 16:04:00,36.2,28.0,29.82,ESE,123,7.0,22.0,73,0.00,,,0.00,weatherlink.com 1.10,2013-03-03 22:04:00,
2013-03-03 16:19:00,36.0,28.0,29.82,East,96,11.0,18.0,74,0.00,,,0.00,weatherlink.com 1.10,2013-03-03 22:19:00,
2013-03-03 16:34:00,36.0,28.0,29.82,East,101,13.0,22.0,74,0.00,,,0.00,weatherlink.com 1.10,2013-03-03 22:34:00,
2013-03-03 16:49:00,35.8,28.0,29.81,SE,130,12.0,17.0,74,0.00,,,0.00,weatherlink.com 1.10,2013-03-03 22:49:00,
2013-03-03 17:04:00,35.7,28.0,29.80,East,95,17.0,23.0,73,0.00,,,0.00,weatherlink.com 1.10,2013-03-03 23:04:00,
2013-03-03 17:20:00,35.4,28.0,29.79,ESE,106,13.0,19.0,74,0.00,,,0.00,weatherlink.com 1.10,2013-03-03 23:20:00,
2013-03-03 17:35:00,35.1,28.0,29.77,ESE,108,12.0,21.0,74,0.00,,,0.00,weatherlink.com 1.10,2013-03-03 23:35:00,
2013-03-03 17:50:00,35.1,27.0,29.79,East,94,15.0,21.0,73,0.00,,,0.00,weatherlink.com 1.10,2013-03-03 23:50:00,
2013-03-03 18:05:00,34.8,27.0,29.77,SE,130,6.0,25.0,73,0.00,,,0.00,weatherlink.com 1.10,2013-03-04 00:05:00,
2013-03-03 18:20:00,34.6,27.0,29.79,ESE,105,10.0,17.0,74,0.00,,,0.00,weatherlink.com 1.10,2013-03-04 00:20:00,
2013-03-03 18:35:00,34.6,27.0,29.80,ESE,119,12.0,19.0,73,0.00,,,0.00,weatherlink.com 1.10,2013-03-04 00:35:00,
2013-03-03 18:50:00,34.5,27.0,29.83,SE,146,3.0,15.0,74,0.00,,,0.00,weatherlink.com 1.10,2013-03-04 00:50:00,
2013-03-03 19:05:00,34.3,27.0,29.80,East,101,7.0,21.0,74,0.00,,,0.00,weatherlink.com 1.10,2013-03-04 01:05:00,
2013-03-03 19:20:00,34.2,27.0,29.80,ESE,103,12.0,19.0,74,0.00,,,0.00,weatherlink.com 1.10,2013-03-04 01:20:00,
2013-03-03 19:35:00,34.2,27.0,29.82,ESE,115,4.0,16.0,75,0.00,,,0.00,weatherlink.com 1.10,2013-03-04 01:35:00,
2013-03-03 19:50:00,33.9,27.0,29.82,ESE,111,7.0,14.0,75,0.00,,,0.00,weatherlink.com 1.10,2013-03-04 01:50:00,
2013-03-03 20:05:00,33.8,27.0,29.81,ESE,102,12.0,21.0,75,0.00,,,0.00,weatherlink.com 1.10,2013-03-04 02:05:00,
2013-03-03 20:20:00,33.5,27.0,29.82,ESE,114,11.0,22.0,76,0.00,,,0.00,weatherlink.com 1.10,2013-03-04 02:20:00,
2013-03-03 20:35:00,33.4,27.0,29.80,East,101,14.0,22.0,76,0.00,,,0.00,weatherlink.com 1.10,2013-03-04 02:35:00,
2013-03-03 20:50:00,33.2,27.0,29.80,ESE,123,9.0,19.0,77,0.00,,,0.00,weatherlink.com 1.10,2013-03-04 02:50:00,
2013-03-03 21:05:00,33.3,27.0,29.80,ESE,107,8.0,19.0,76,0.00,,,0.00,weatherlink.com 1.10,2013-03-04 03:05:00,
2013-03-03 21:20:00,33.1,26.0,29.79,SE,128,14.0,22.0,76,0.00,,,0.00,weatherlink.com 1.10,2013-03-04 03:20:00,
2013-03-03 21:35:00,32.9,26.0,29.79,East,101,11.0,22.0,76,0.00,,,0.00,weatherlink.com 1.10,2013-03-04 03:35:00,
2013-03-03 21:50:00,32.9,26.0,29.79,ESE,105,11.0,21.0,76,0.00,,,0.00,weatherlink.com 1.10,2013-03-04 03:50:00,
2013-03-03 22:05:00,32.8,26.0,29.79,East,98,11.0,21.0,76,0.00,,,0.00,weatherlink.com 1.10,2013-03-04 04:05:00,
2013-03-03 22:20:00,32.8,26.0,29.79,ESE,123,15.0,21.0,75,0.00,,,0.00,weatherlink.com 1.10,2013-03-04 04:20:00,
2013-03-03 22:35:00,32.8,26.0,29.79,ESE,103,17.0,21.0,75,0.00,,,0.00,weatherlink.com 1.10,2013-03-04 04:35:00,
2013-03-03 22:50:00,33.0,26.0,29.79,ESE,117,15.0,17.0,74,0.00,,,0.00,weatherlink.com 1.10,2013-03-04 04:50:00,
2013-03-03 23:05:00,33.0,25.0,29.78,East,92,10.0,21.0,73,0.00,,,0.00,weatherlink.com 1.10,2013-03-04 05:05:00,
2013-03-03 23:20:00,32.5,25.0,29.76,ESE,117,11.0,16.0,74,0.00,,,0.00,weatherlink.com 1.10,2013-03-04 05:20:00,
2013-03-03 23:35:00,32.2,25.0,29.75,ESE,117,8.0,19.0,75,0.00,,,0.00,weatherlink.com 1.10,2013-03-04 05:35:00,
2013-03-03 23:50:00,32.1,25.0,29.75,East,89,10.0,22.0,75,0.00,,,0.00,weatherlink.com 1.10,2013-03-04 05:50:00,